sat.trackr.live / text

‹ back to catalog

STARLINK-31021

NORAD 58518 · 2023-191L

PAYLOAD ACTIVE UNKNOWN

§ Identity

Operator
Country
US
Launch date
2023-12-07
Launch site
AFETR
Launch vehicle
Mass (kg)
RCS (m²)

Purposes: comms

External: N2YO · Heavens-Above · Gunter

§ Orbital elements

Epoch: 2026-05-25T00:38:58.213824Z

Period
94.27 min
Inclination
43.0021°
Eccentricity
0.0001563
Mean motion
15.27587961 rev/d
Perigee alt
482.0 km
Apogee alt
484.1 km
Semi-major
6,861.2 km
B*
9.0088e-5
RAAN
32.5127°
Arg perigee
266.5534°
Mean anomaly
93.5139°
Rev number
13,714

§ Raw data

STARLINK-310211 58518U 23191L   26145.02706266  .00002218  00000+0  90088-4 0  99912 58518  43.0021  32.5127 0001563 266.5534  93.5139 15.27587961137142

JSON: /api/v1/satellites/58518 · /tle

For live sub-satellite position, see the globe view (requires WebGL).

§ Visibility from observer

Set your observer location to see the next 7 days of passes ≥ 10°. The values pass through the URL so the page stays shareable.

No JS? Fill the form by hand. The geolocation button needs JavaScript.